THORAD AGENA D DEB, 4857

Orbit data source: Space-Track

THORAD AGENA D DEB, 4857 is space debris in SSO originally from a launch on Wed, 08 Apr 1970 UTC launched from the Air Force Western Test Range (AFWTR). Debris objects in space refer to the collection of defunct objects orbiting the Earth. Examples of debris include non-operational satellites, rocket bodies, and fragments generated from explosions, collisions, or faulty payload assembly.

Loading next visibility...
Identifier
4857, 1970-025EM
Orbit
SSO
Country
Flag of USUS
Related business
Manufacturer
Unknown
Mission
Spacecraft
Bus & Motor
Unknown
Mass
Unknown
Launch date (UTC)
1970-04-08 (56 years ago)
Launch vehicle
Unknown
Launch site
Air Force Western Test Range (AFWTR)
Object type
Payload
Rocket body
Debris
Shape & HBR
Unknown shape, 0.1 m
Radar Cross Section
Medium (>0.1 m² and <1 m²)

Expand to show TLE details & history
Last TLE update: 1 day ago

TLE from 1 day ago
0 THORAD AGENA D DEB
1  4857U 70025EM  26236.23611650  .00001863  00000-0  73375-3 0  9997
2  4857  99.7331 149.9919 0043040 273.5782  86.0475 14.30127477832688
Epoch: 2026-08-24T05:40Z
TLE epoch observation values (Epoch: 2026-08-24T05:40:00.465Z)
Latitude
-0.00001°
Longitude
92.46925°
Altitude
792.203 km
Speed
7.459 km/s
True Right ascension
09h 59m 58s
True Declination
0° 00' 00"
Sunlit
Object was in daylight at epoch
Visualization orbit readout
Latitude
Unknown
Longitude
Unknown
Altitude
Unknown
Speed
Unknown
Apparent Right ascension
Unknown
Apparent Declination
Unknown
Sunlit
N/A
Visualization observer readout
Local Sidereal Time
21:11:30
Azimuth
Unknown
Elevation
Unknown
Doppler factor
Unknown
Orbital elements
Apogee altitude
819.347 km
Perigee altitude
757.657 km
Semi-major axis
7,166.639 km
Eccentricity
0.0043
Inclination
99.7331°
RAAN
149.9919°
Arg. of periapsis
273.5782°
True anomaly
86.53971°
Mean anomaly
86.0475°
Eccentric anomaly
86.29359°
Mean motion
3.57742 °/min
Orbital period
100.63 mins
BSTAR
0.00073375
Loading maneuver chart data...
Computing Atmospheric mass density...

Documentation

Showing up to 5 results
|